Вернуться в каталог

FENGYUN 1C DEB

АктивенSSO
NORAD 30151·DEBRIS·🇨🇳 China

Запущен May 10, 1999 с Taiyuan Satellite Launch Center

Loading…

Ближайшие Пролёты (ближайшие 24 часа)

TLE

СвежийSource: Space-Track

Эпоха: Sep 14, 2026, 06:56 UTC

1 30151U 99025TG  26257.28920372  .00000392  00000-0  34885-3 0  9995
2 30151  99.0649 260.9168 0161074 257.6757 114.7594 13.84913052990598

Отслеживайте FENGYUN 1C DEB в реальном времени с AllMySat

Download on the App Store